This is the latest recevied weather packets stored in our database for station/object KN4CI-1. If no packets are shown the sender has not sent any weather packets the latest 10 day(s).
| Time | Temp. | Humidity | Pressure | Rain* | Wind** | Luminosity | Snow |
|---|---|---|---|---|---|---|---|
| 1777599261 | 14.44° C | 19% | 1014.6 hPa | 0 mm | 0 m/s | - | - |
| 1777598957 | 14.44° C | 19% | 1014.6 hPa | 0 mm | 0 m/s | - | - |
| 1777598657 | 14.44° C | 19% | 1014.6 hPa | 0 mm | 0 m/s | - | - |
| 1777597748 | 14.44° C | 19% | 1014.6 hPa | 0 mm | 1.79 m/s, 347° | - | - |
| 1777596234 | 15.56° C | 19% | 1014.6 hPa | 0 mm | 0 m/s | - | - |
| 1777594728 | 16.11° C | 19% | 1013.6 hPa | 0 mm | 0 m/s | - | - |
| 1777594120 | 16.67° C | 18% | 1013.6 hPa | 0 mm | 0 m/s | - | - |
| 1777593817 | 17.22° C | 18% | 1014.6 hPa | 0 mm | 1.34 m/s, 347° | - | - |
| 1777593211 | 17.22° C | 18% | 1014.6 hPa | 0 mm | 1.34 m/s, 337° | - | - |
| 1777592911 | 17.78° C | 18% | 1014.6 hPa | 0 mm | 1.34 m/s, 337° | - | - |
| 1777591997 | 18.33° C | 18% | 1014.6 hPa | 0 mm | 1.34 m/s, 341° | - | - |
| 1777590487 | 19.44° C | 17% | 1014.6 hPa | 0 mm | 1.79 m/s, 341° | - | - |
| 1777590187 | 19.44° C | 17% | 1014.6 hPa | 0 mm | 1.79 m/s, 315° | - | - |
| 1777589285 | 20.56° C | 17% | 1014.6 hPa | 0 mm | 1.79 m/s, 54° | - | - |
| 1777588981 | 20° C | 17% | 1014.6 hPa | 0 mm | 1.34 m/s, 318° | - | - |
| 1777588681 | 20° C | 17% | 1014.6 hPa | 0 mm | 1.79 m/s, 105° | - | - |
| 1777588071 | 20° C | 17% | 1014.6 hPa | 0 mm | 2.68 m/s, 351° | - | - |
| 1777586254 | 20° C | 17% | 1014.6 hPa | 0 mm | 1.79 m/s, 42° | - | - |
| 1777585953 | 20° C | 17% | 1014.6 hPa | 0 mm | 1.79 m/s, 36° | - | - |
| 1777585649 | 20° C | 17% | 1014.6 hPa | 0 mm | 2.68 m/s, 77° | - | - |
| 1777585326 | 20° C | 17% | 1014.6 hPa | 0 mm | 1.79 m/s, 49° | - | - |
| 1777585021 | 20° C | 17% | 1014.6 hPa | 0 mm | 2.24 m/s, 336° | - | - |
| 1777584417 | 20° C | 17% | 1014.6 hPa | 0 mm | 1.79 m/s, 13° | - | - |
| 1777584117 | 20° C | 17% | 1014.6 hPa | 0 mm | 2.24 m/s, 337° | - | - |
| 1777583818 | 20.56° C | 17% | 1014.6 hPa | 0 mm | 2.68 m/s, 331° | - | - |
* Rain latest hour (hover to see other rain measurements)
** Current wind speed in m/s (hover to see current wind gust speed)